RH
57 65 74 81 83 84 86 92 88 82 85 65 38 40 39 34 36 35 37 35 33 31 27 28 25 26 30 34 37 39 39 41 45 49 63 61 50 52 56 65 72 74 80 86 88 92 92 90 89 88 93 94 92 90 88 88 89 92 93 95 98 93 89 89 87 83 79 82 87 89 90 88 88 87 89 91 90 91 91 90 89 89 88 86 88 85 82 81 80 77 69 67 67 69 76 78 75
65 70 74 81 83 86 88 88 88 79 71 53 39 39 36 33 34 34 34 32 29 26 24 25 25 25 26 29 32 36 39 37 40 44 48 47 48 54 60 67 70 74 78 83 87 88 91 92 89 91 94 95 94 93 91 89 88 91 94 96 97 94 90 88 85 81 79 85 86 85 89 91 90 86 88 90 90 94 93 91 90 90 87 86 88 84 82 79 79 77 67 66 67 69 78 81 78
69 75 73 80 84 87 88 85 83 72 60 52 46 36 34 35 33 34 30 27 25 23 26 27 28 27 25 31 35 39 39 34 35 39 40 44 52 57 62 66 69 73 74 79 83 84 92 91 86 91 92 93 95 93 94 91 89 92 92 93 97 95 89 85 82 79 81 83 83 85 86 87 86 80 84 85 83 89 91 92 92 90 87 87 90 87 83 80 81 80 72 70 70 72 79 83 81
70 78 77 80 87 86 84 81 75 67 56 49 48 38 34 35 32 32 27 25 23 24 28 29 32 28 27 34 36 39 39 34 36 40 41 45 50 53 58 65 69 71 74 76 80 86 89 83 79 85 88 92 94 93 94 95 94 93 87 85 96 97 88 86 83 82 86 87 86 86 84 85 85 79 81 83 83 88 91 94 92 90 88 89 92 90 85 83 84 83 77 74 74 78 83 84 83
69 76 79 82 91 89 83 78 70 70 57 42 46 40 33 33 32 31 26 26 23 25 27 28 33 30 29 29 31 40 38 34 37 42 44 44 46 52 56 62 66 70 76 77 82 88 81 74 74 78 83 86 89 90 90 92 96 94 89 87 95 98 92 88 84 86 93 94 92 87 83 85 85 81 81 86 90 91 91 92 91 89 88 90 91 90 88 87 86 84 80 76 76 81 85 84 83
70 75 82 83 92 91 86 83 76 69 49 37 43 39 35 33 32 30 27 28 25 24 23 25 29 30 32 29 29 34 34 34 37 40 41 41 45 53 57 61 65 72 80 80 85 85 74 71 72 73 78 79 79 81 83 88 94 96 94 91 93 96 96 95 86 83 89 91 95 94 88 85 82 81 83 88 90 88 88 89 91 89 88 89 89 88 88 87 86 84 80 79 80 83 83 81 81
70 74 83 84 93 91 88 90 85 70 45 38 40 36 36 33 31 30 30 30 28 25 23 24 24 29 34 31 31 30 31 34 34 37 39 41 45 54 59 64 69 76 81 82 87 83 72 73 75 77 82 84 82 80 86 92 96 96 92 84 82 83 88 96 90 80 81 83 90 94 89 85 81 82 86 90 88 85 87 89 91 90 88 89 87 86 87 86 85 81 78 78 78 77 77 78 79
68 71 79 82 91 89 91 94 86 71 47 37 36 35 36 33 31 31 32 32 31 29 26 26 24 31 34 31 36 34 32 35 35 38 40 41 46 57 60 62 69 74 80 82 84 79 74 79 80 84 87 86 85 85 92 96 94 97 95 84 76 75 79 89 91 82 79 82 87 89 88 86 84 84 86 91 87 84 89 92 90 87 87 88 87 88 88 85 82 75 71 70 68 69 71 74 76
68 75 82 85 90 88 93 97 90 76 48 37 37 37 37 34 33 32 32 30 30 30 28 27 26 34 36 36 41 36 34 37 38 39 41 40 46 62 62 64 71 73 79 82 82 80 78 80 78 81 83 81 82 82 88 95 94 96 97 91 82 77 78 85 93 87 81 83 84 84 85 86 88 89 88 91 88 85 91 93 88 85 86 87 87 89 86 80 75 70 65 64 64 66 68 68 69
73 80 88 89 89 89 97 96 93 82 50 37 40 38 37 35 34 33 32 30 30 30 28 26 26 33 35 39 41 35 35 37 38 38 39 38 46 63 66 67 72 73 76 76 81 86 82 81 83 84 83 85 85 76 80 94 97 93 87 86 84 79 81 86 91 89 83 82 81 81 85 89 90 92 92 92 90 89 91 91 87 85 85 84 81 79 75 72 69 65 62 61 63 64 65 65 64
81 85 88 91 89 89 98 95 90 78 49 38 41 38 38 36 35 34 33 33 31 30 28 25 28 31 34 39 39 34 34 34 35 35 37 39 47 60 64 66 69 69 70 70 78 87 87 87 91 91 88 90 90 83 81 88 89 85 78 77 81 82 85 90 90 90 85 82 82 81 86 93 92 92 93 91 87 86 90 91 89 86 82 77 72 68 67 68 64 60 59 60 62 63 63 62 61
86 89 88 95 94 90 93 93 88 72 49 44 46 41 38 36 37 36 35 34 30 31 29 29 31 30 36 41 37 33 31 32 33 34 37 39 47 57 59 61 64 64 66 70 78 86 91 93 95 94 88 86 89 88 87 86 80 78 78 75 78 83 87 91 88 87 86 83 85 84 88 95 95 96 93 87 84 86 90 90 89 86 78 70 64 62 64 63 59 57 59 60 61 61 59 58 58
86 84 90 97 94 92 92 90 84 73 58 51 49 43 40 40 40 38 36 34 31 34 32 28 27 28 36 38 34 30 30 31 33 35 37 38 43 53 57 56 59 65 68 71 77 83 87 91 95 90 82 84 87 84 86 89 84 83 85 81 80 84 88 90 85 82 83 83 86 87 91 94 94 96 88 82 82 87 91 88 88 83 70 63 58 58 59 57 56 57 58 60 59 57 55 55 56
89 85 94 95 89 93 93 89 83 79 67 51 46 43 43 43 40 37 36 37 35 32 28 24 25 30 35 36 34 31 30 32 33 34 36 38 39 45 53 54 58 65 69 71 77 84 87 93 93 83 79 87 89 85 87 89 89 87 89 90 86 86 88 87 83 79 82 84 85 86 91 94 92 91 81 78 81 86 88 85 87 76 59 57 55 54 55 54 55 56 58 57 54 52 53 53 53
89 90 97 94 90 92 88 88 85 82 68 49 48 46 46 43 37 40 38 36 33 25 24 24 25 30 33 34 36 31 31 32 32 34 35 37 37 38 43 49 60 65 69 74 81 84 84 89 87 81 82 86 84 82 86 89 91 88 89 93 89 88 88 88 82 77 85 88 85 85 89 93 92 86 78 77 80 85 85 81 79 64 53 54 51 50 51 53 55 56 57 53 50 50 52 52 52
76 76 90 96 92 91 86 86 87 80 60 47 50 45 46 45 40 46 39 30 27 23 23 25 24 27 28 29 31 30 31 32 31 34 35 36 36 36 36 47 63 67 70 75 77 76 74 78 80 84 88 85 80 78 83 87 90 90 91 92 89 91 91 89 85 82 91 91 85 84 85 91 94 85 76 76 79 83 83 76 67 53 49 47 43 46 50 53 55 54 52 47 46 50 52 52 51
58 56 79 94 92 91 85 84 87 78 55 45 47 41 49 53 44 41 33 27 27 26 23 21 21 22 24 26 29 30 31 32 33 34 36 37 36 36 35 47 64 65 70 76 72 71 72 73 76 85 91 89 86 86 87 86 87 89 91 91 92 95 93 91 87 85 89 88 86 84 83 89 93 84 75 78 80 80 74 64 55 45 41 39 40 48 52 54 53 50 47 44 46 51 53 51 50
46 55 76 92 96 91 81 77 78 76 61 47 44 41 48 52 43 37 34 33 30 27 24 20 22 22 24 28 29 30 31 32 34 35 37 37 36 35 34 46 66 67 68 77 76 73 76 79 80 84 89 89 88 92 91 85 86 89 90 93 95 96 96 93 86 85 87 85 84 84 81 81 90 90 81 76 74 76 64 49 44 39 37 40 46 52 52 52 50 48 48 49 51 53 55 53 52
42 54 69 81 89 84 77 72 65 68 61 47 49 48 45 46 41 39 40 38 32 29 27 25 27 27 27 28 29 31 31 33 34 35 36 36 35 33 35 49 66 68 69 80 83 81 83 89 90 86 86 86 87 92 93 89 87 90 93 94 94 95 95 92 87 86 86 83 82 84 78 76 93 95 81 74 77 83 62 40 39 39 42 47 51 52 50 51 51 53 53 52 52 52 56 58 57
42 48 58 67 73 75 74 72 65 60 50 45 56 55 46 43 41 43 42 38 33 32 30 30 31 31 30 28 29 31 31 33 34 34 34 33 33 31 35 51 61 63 68 76 82 85 86 86 87 86 84 84 86 91 92 91 90 91 95 93 94 96 92 90 89 87 83 80 81 84 78 80 95 90 80 80 86 84 54 36 43 45 49 51 52 53 53 53 52 54 53 50 50 50 54 53 49
43 43 48 57 62 68 69 69 68 59 49 42 49 58 50 43 49 56 55 47 37 33 31 29 30 30 30 29 29 31 31 32 33 32 33 30 32 31 33 47 57 59 65 71 77 80 79 78 81 85 84 83 87 88 86 88 90 92 94 94 95 94 92 90 88 88 85 80 80 83 84 88 92 82 79 83 85 76 48 41 51 54 58 56 55 59 60 57 54 54 52 51 49 47 50 45 40
39 40 39 50 57 61 64 66 69 68 62 44 42 60 58 49 57 62 62 57 42 35 31 26 28 28 29 29 28 30 29 30 32 30 32 31 30 32 34 45 55 58 62 67 72 73 73 74 79 84 85 87 89 87 85 88 90 92 92 92 94 91 92 94 90 91 88 82 81 85 89 90 86 77 76 81 79 66 51 55 62 65 68 64 61 62 63 59 55 51 48 50 45 39 43 42 38
34 42 37 44 50 56 62 63 68 72 69 53 44 60 65 57 59 58 58 57 42 33 30 25 26 26 27 28 27 29 29 29 30 30 31 31 31 34 37 43 49 54 57 60 63 67 72 73 77 81 84 87 87 86 88 92 93 94 93 92 93 89 90 95 92 91 86 83 86 86 84 82 80 77 78 79 70 59 57 63 65 67 67 65 64 61 60 56 53 50 47 47 39 35 41 41 40
26 40 39 41 44 52 57 58 68 74 70 58 46 62 75 66 62 59 55 50 40 33 27 24 25 26 26 27 27 28 29 29 29 30 30 31 33 36 40 44 46 49 52 56 59 62 69 75 76 80 85 82 79 82 85 91 93 93 96 94 93 92 90 89 87 87 82 80 85 82 76 76 78 78 79 74 63 59 60 59 61 64 63 63 62 58 57 55 52 52 51 47 40 36 37 39 41
19 30 34 38 43 49 50 54 71 78 73 59 49 66 77 68 65 64 57 48 44 39 30 25 24 25 26 27 28 28 28 29 29 29 30 33 35 36 42 47 45 46 48 53 57 61 66 72 75 79 84 81 79 83 84 89 90 87 91 92 93 95 90 83 82 84 78 77 81 79 76 77 78 76 75 69 61 59 57 57 62 62 58 58 59 58 57 55 51 52 52 48 42 38 34 36 40
21 21 26 39 48 51 50 55 65 72 73 63 59 72 72 65 65 63 59 52 44 41 33 25 25 25 26 27 27 28 29 29 28 29 32 34 35 36 41 44 42 42 45 47 52 60 66 69 75 78 79 80 81 84 85 86 85 84 86 86 88 91 87 82 83 83 78 79 81 78 75 75 74 70 66 63 58 57 58 61 62 59 57 57 59 59 57 55 52 51 52 49 44 41 38 39 39
22 19 25 40 47 52 57 58 58 63 72 67 66 77 73 67 65 58 55 52 45 41 33 24 25 26 25 27 28 28 29 29 28 30 34 35 36 37 37 38 38 39 41 45 51 59 65 69 75 77 77 77 77 80 82 81 81 84 87 87 89 89 85 81 82 80 77 77 79 78 73 69 66 59 57 60 59 59 62 63 61 57 57 58 58 59 59 55 52 52 53 52 47 42 39 38 37
17 19 24 33 41 50 60 63 54 57 72 70 67 76 77 73 71 58 47 48 45 46 46 30 24 27 25 27 29 29 28 28 30 32 35 34 36 37 35 35 36 37 40 46 53 58 64 71 74 75 78 79 78 81 81 79 83 85 87 88 85 84 82 80 79 76 74 72 76 78 69 63 61 55 55 59 61 62 62 61 59 56 57 58 58 59 60 52 48 51 52 51 48 44 41 39 35
16 21 24 34 50 56 60 66 56 55 71 69 66 78 81 75 70 56 44 45 46 62 71 41 23 26 26 28 29 29 28 29 33 34 35 36 36 36 34 36 34 35 41 46 53 56 61 71 75 75 77 79 80 82 79 79 84 84 84 84 79 79 83 82 77 75 76 72 72 73 66 63 61 56 56 59 61 62 59 58 58 58 59 60 59 58 58 54 49 49 51 51 48 44 41 38 33
17 20 22 33 54 62 60 63 59 62 73 68 69 79 79 72 66 55 45 45 51 69 73 47 36 31 24 31 29 28 30 30 33 34 36 37 36 36 34 35 34 36 42 45 50 55 59 67 74 76 77 78 77 79 80 80 82 84 86 84 78 78 82 81 74 74 78 71 66 71 71 68 62 58 59 60 60 60 60 60 59 59 59 58 57 55 56 55 50 48 50 49 47 45 41 39 34
18 20 24 28 42 59 59 54 55 66 70 64 69 75 72 71 67 60 52 51 56 61 56 55 67 49 25 30 30 28 31 30 32 34 36 37 36 36 34 34 35 38 42 43 48 54 58 65 72 76 76 77 78 81 85 83 82 86 89 89 84 79 80 77 71 75 81 77 74 77 75 70 66 66 66 64 61 60 61 62 60 60 58 58 55 54 57 54 48 48 47 45 46 47 45 41 35
16 21 30 30 37 54 58 50 52 63 63 62 76 81 75 69 64 64 62 62 63 57 52 61 81 68 35 28 30 30 30 28 31 34 36 36 36 36 34 35 36 38 41 43 48 52 57 63 68 72 74 76 78 79 79 77 76 77 78 81 79 75 74 73 72 74 78 79 79 77 75 72 69 69 70 71 69 63 59 60 62 61 59 62 57 53 56 52 49 49 45 44 45 45 47 45 38
14 21 30 34 38 46 53 56 57 62 62 64 77 80 74 66 63 68 68 69 70 64 61 65 78 76 49 29 28 31 30 28 31 35 36 37 37 36 34 36 36 37 41 44 48 51 55 60 64 69 74 77 77 73 71 71 71 69 69 71 71 68 68 71 72 70 67 69 71 73 76 76 73 72 73 76 74 66 62 61 62 62 62 63 58 51 51 50 48 46 43 44 44 46 50 48 43
14 19 23 28 32 35 46 59 59 61 63 61 66 68 66 63 62 68 69 70 73 67 65 69 77 81 63 38 28 30 31 29 32 36 36 38 38 36 35 36 36 38 42 43 47 52 53 55 60 65 71 76 74 70 71 71 70 70 68 69 70 66 65 68 68 63 60 61 65 72 76 76 77 76 74 75 73 67 65 66 63 65 66 62 58 52 49 47 46 45 44 45 45 49 52 48 43
15 18 20 23 26 29 40 50 51 58 65 62 61 62 65 65 63 66 68 67 69 65 63 68 75 80 70 45 31 30 30 30 33 34 34 38 39 36 37 37 38 39 40 43 47 52 53 54 60 64 67 72 72 72 74 71 70 72 71 71 68 63 61 63 62 58 55 57 65 73 74 75 77 75 73 72 72 68 67 69 67 67 68 63 60 55 50 47 48 50 49 47 47 48 52 51 44
16 17 19 22 21 27 38 43 43 48 57 60 55 54 59 64 66 68 69 66 66 66 68 70 72 73 64 47 34 30 30 30 32 34 34 39 39 38 38 38 39 40 40 45 49 53 55 57 60 63 65 68 69 72 74 72 71 70 71 72 68 65 63 60 58 54 53 59 68 72 71 72 75 75 73 71 70 70 70 70 67 67 70 68 66 62 56 52 51 53 53 51 49 49 51 48 43
16 15 18 20 18 27 38 41 41 38 42 47 46 46 50 55 61 65 66 67 66 65 69 73 72 69 61 48 35 28 29 29 31 34 36 40 40 39 40 38 39 41 43 48 51 54 58 59 60 62 63 65 67 67 66 66 68 67 65 67 66 66 63 57 54 53 54 61 66 68 70 72 75 75 73 73 71 70 71 72 68 68 71 71 70 68 62 60 57 54 54 52 49 49 49 45 41
14 12 15 15 15 27 35 35 40 39 35 36 40 45 48 52 58 61 63 66 66 62 63 70 72 68 62 54 41 30 28 28 30 34 35 38 40 40 40 39 40 43 46 48 51 55 59 59 61 62 62 63 63 63 60 59 62 61 58 58 59 59 57 53 50 51 55 61 63 67 71 72 76 76 75 76 74 70 72 72 69 68 71 71 70 70 66 63 58 55 54 50 46 47 46 44 42
10 9 11 12 15 29 37 34 36 38 31 29 35 39 44 54 58 60 61 63 63 57 57 63 67 68 64 57 47 33 27 29 31 33 35 38 41 41 40 39 41 45 47 48 51 55 57 60 62 62 63 61 59 59 58 57 57 55 52 53 55 52 50 48 47 50 55 60 63 68 72 73 78 79 76 75 72 72 74 72 70 69 71 72 71 72 69 65 59 53 52 50 48 48 46 46 44
7 8 8 9 12 21 31 34 33 34 31 25 27 34 48 61 64 64 60 57 61 58 57 60 62 68 66 56 47 34 27 30 31 32 34 38 41 42 41 40 42 46 47 47 51 54 56 60 63 63 62 60 59 59 58 56 54 52 50 50 49 47 48 47 48 52 54 58 63 70 76 77 78 77 75 72 69 73 75 72 72 70 68 71 71 70 68 67 62 54 53 52 51 50 49 49 45
7 7 7 7 8 7 17 30 31 30 29 26 26 37 59 69 70 72 63 58 64 62 61 65 64 69 67 56 49 39 29 28 30 32 33 38 42 43 42 41 42 45 46 47 49 51 55 60 63 63 61 59 60 61 59 56 54 53 50 48 47 46 48 49 51 55 55 56 60 68 77 77 73 72 70 68 68 76 77 74 76 76 71 69 69 68 66 65 62 58 58 54 52 56 55 55 51
6 7 5 6 6 4 9 21 23 20 24 31 31 35 58 71 69 71 67 62 66 64 63 67 68 73 72 60 52 44 32 26 28 31 32 38 41 43 44 41 40 43 45 47 47 48 54 60 63 63 60 60 62 62 60 57 58 58 54 52 50 50 54 53 53 57 57 54 56 64 72 71 69 70 70 68 71 77 75 72 75 75 72 68 67 67 64 64 63 61 60 58 60 62 58 60 60
6 6 4 5 7 6 8 12 14 13 19 34 33 25 47 70 70 66 65 65 65 64 62 61 66 78 79 68 54 42 32 26 28 29 30 37 41 43 45 43 40 41 42 45 45 46 54 61 63 64 62 61 63 64 63 63 64 64 60 57 56 56 59 57 53 54 56 54 55 62 65 65 65 67 69 71 74 77 75 76 75 71 70 69 65 63 62 61 60 58 61 66 68 65 61 65 65
5 4 4 6 6 7 8 8 11 9 11 27 30 21 32 53 59 58 61 66 66 66 64 59 61 71 75 71 59 43 32 27 28 28 30 37 41 42 44 44 41 39 41 43 43 45 54 61 62 63 62 62 64 68 69 68 69 67 63 59 58 57 57 57 54 53 55 54 55 60 62 64 65 65 69 70 71 74 75 78 75 69 71 71 65 63 64 61 59 60 67 70 66 64 67 68 64
6 4 5 6 6 7 8 7 9 8 10 21 24 21 24 33 49 61 63 68 71 69 65 60 58 61 63 64 59 46 33 27 26 27 28 33 39 42 43 44 41 38 39 40 41 45 54 61 63 63 63 62 65 71 73 71 69 68 63 57 57 55 53 57 57 55 55 53 54 59 61 65 67 67 70 71 71 72 74 77 76 72 71 71 66 65 66 63 61 65 68 67 64 67 70 66 60
6 5 5 6 5 6 7 7 8 9 15 21 18 18 24 32 52 71 76 73 71 69 65 61 59 58 58 57 54 46 35 28 26 26 27 29 36 41 42 42 41 38 37 38 40 45 55 61 63 64 64 62 65 71 74 71 68 67 62 57 56 53 53 57 58 58 59 57 59 63 63 65 67 67 69 71 74 75 74 75 75 71 69 68 67 65 66 66 64 65 65 64 67 68 67 65 62
6 5 5 6 6 7 8 8 9 12 19 20 15 15 19 31 49 65 74 69 61 61 66 71 71 64 59 56 52 46 36 29 26 26 27 28 31 38 41 40 40 40 38 37 39 45 54 60 62 64 64 63 66 72 74 72 69 68 63 58 57 56 57 60 59 62 66 65 67 68 66 68 67 65 65 68 74 74 72 73 72 69 68 67 67 65 66 68 66 65 62 63 68 66 64 66 65
7 6 6 7 9 11 12 13 13 18 22 16 13 14 13 30 50 55 60 57 50 54 60 67 73 68 62 58 52 46 39 31 27 26 27 28 31 36 41 41 41 41 39 36 38 44 52 59 61 64 65 63 67 71 73 73 70 69 66 62 61 60 60 61 60 63 67 67 68 67 66 67 65 62 61 64 69 67 68 72 70 67 67 68 67 66 66 67 68 66 62 64 69 67 66 66 65
8 8 10 12 15 17 18 20 19 20 21 15 14 14 17 41 58 52 54 57 51 52 51 53 60 62 62 60 53 49 42 34 28 26 27 29 31 34 37 40 40 39 39 38 38 43 50 57 61 65 66 64 66 69 71 73 71 69 68 66 65 64 62 60 59 60 64 65 65 63 62 63 63 62 59 60 63 61 62 70 69 65 67 70 68 67 70 68 67 71 69 69 70 66 65 65 65
10 10 13 16 18 21 22 21 21 22 19 13 14 14 24 51 61 50 52 56 53 53 50 47 52 55 56 55 51 49 44 39 32 26 26 28 31 33 33 37 39 38 40 40 39 42 49 56 61 65 66 65 66 68 69 70 70 69 69 67 66 66 63 60 59 59 61 62 61 58 58 61 63 62 59 57 58 56 57 65 70 68 69 75 74 72 74 71 69 76 74 72 72 66 63 66 67
10 10 12 16 18 21 24 20 20 21 16 15 21 22 30 51 57 49 45 46 53 63 60 53 52 53 52 48 49 49 46 45 39 29 27 30 31 33 34 36 38 37 42 43 40 42 48 55 62 65 67 67 67 68 68 68 67 67 68 67 66 67 64 62 60 59 58 58 58 56 54 57 59 60 58 55 55 55 54 60 68 70 71 77 80 77 75 71 69 74 72 68 71 70 65 66 69
12 11 12 16 15 17 21 18 16 17 16 19 25 29 36 45 47 43 41 40 46 60 67 62 55 56 55 49 51 54 49 46 43 34 31 32 32 33 34 37 37 35 41 44 41 44 47 53 62 65 67 68 68 69 69 67 66 65 66 67 67 66 65 63 62 60 58 56 56 54 53 54 54 53 53 53 54 55 55 57 63 68 70 75 80 78 74 71 71 74 73 70 72 72 67 65 66
12 13 14 15 14 15 21 21 17 18 22 22 19 26 42 49 49 45 42 43 44 51 65 69 62 60 62 56 50 51 50 48 46 41 39 37 33 33 34 35 37 36 37 41 42 44 47 53 60 64 67 67 66 68 68 67 66 65 65 66 65 65 63 62 61 61 60 57 55 54 53 53 52 51 51 51 52 54 56 57 61 65 68 72 77 76 75 73 72 77 77 74 75 73 66 63 65
10 13 14 14 14 16 21 24 23 23 26 23 14 23 45 56 58 53 46 47 47 49 61 71 70 66 67 66 56 50 48 49 51 49 47 44 36 34 35 34 36 37 35 40 45 45 47 55 59 62 65 65 65 66 65 65 66 64 64 65 63 62 59 57 57 58 59 57 56 55 54 53 53 52 51 50 50 52 56 58 59 61 63 67 71 71 73 73 71 75 77 73 72 73 70 69 71
10 13 13 15 19 23 27 29 31 30 29 26 17 18 39 55 58 56 52 52 51 50 57 69 76 74 71 72 72 68 57 50 56 58 53 50 41 34 35 34 34 38 37 40 46 46 46 53 58 61 62 62 61 61 61 63 64 61 61 64 63 60 57 54 52 54 56 56 55 55 57 56 54 53 52 51 50 50 54 58 60 60 59 62 67 68 70 71 70 72 74 71 68 69 72 73 71
11 12 12 15 19 24 29 27 28 32 31 31 24 22 45 61 58 58 61 59 55 52 54 64 77 80 74 69 72 76 67 55 58 62 58 57 49 35 33 34 34 38 39 39 43 45 46 50 56 59 60 59 57 55 56 59 60 58 57 60 63 61 57 54 52 52 54 54 54 54 55 55 54 53 52 52 53 52 52 55 58 60 58 57 61 66 67 67 69 72 73 70 64 62 68 72 72
12 13 14 18 19 22 28 25 26 33 33 33 26 29 55 66 59 60 62 60 57 52 53 61 69 74 73 69 68 71 69 59 55 59 63 67 61 44 33 31 35 40 41 39 40 43 44 48 53 55 55 56 53 51 52 54 55 55 54 55 59 59 57 55 53 52 52 53 53 53 52 52 52 52 52 52 54 54 53 53 55 58 57 54 54 58 61 62 64 69 71 70 66 62 65 71 74
12 13 16 21 22 25 34 36 33 31 33 34 27 32 57 64 60 62 60 56 57 54 56 61 63 66 68 69 70 71 71 66 58 61 70 77 78 66 46 34 36 45 46 42 41 42 42 44 50 53 51 50 49 47 47 50 52 52 52 52 53 56 56 54 52 50 50 50 51 51 52 52 50 51 52 52 54 56 56 55 54 54 55 54 52 52 56 59 60 63 66 68 66 62 63 68 71
Wind_Speed
5 4 0 1 1 5 3 1 1 1 2 3 3 5 6 8 8 8 8 9 8 8 8 8 9 8 9 12 13 13 9 7 6 4 5 10 20 22 20 22 22 20 19 18 17 15 13 13 13 13 12 12 12 12 12 12 13 13 12 12 12 13 14 15 16 16 16 15 13 12 12 13 14 16 16 14 13 13 13 13 13 12 12 13 12 12 12 11 12 12 13 14 15 16 15 15 15
4 5 3 3 3 1 1 1 1 1 4 2 6 6 8 8 7 8 8 9 9 10 10 9 9 11 14 14 14 14 13 13 13 10 11 21 23 21 23 22 21 20 19 18 17 16 12 13 14 14 12 12 11 12 12 12 12 12 12 13 13 13 14 14 15 15 16 14 12 12 13 14 13 15 16 15 14 12 13 13 12 12 12 12 12 12 12 12 12 12 13 14 15 16 16 15 15
3 1 2 3 2 1 0 1 1 2 2 4 6 6 7 7 9 10 10 12 12 12 10 9 9 9 12 15 14 13 13 15 18 15 13 24 20 20 25 22 21 20 19 18 17 16 13 13 15 14 13 12 11 11 11 12 11 12 12 12 13 13 14 14 14 16 15 14 13 13 14 15 14 15 15 15 16 13 13 12 11 11 12 12 12 12 12 12 12 12 12 13 14 15 14 14 14
3 3 2 2 1 1 1 2 2 3 2 4 5 7 8 8 10 10 11 12 11 11 10 10 8 9 11 14 14 12 13 14 18 16 11 20 20 22 26 22 22 19 19 18 17 16 13 14 15 14 14 12 11 11 11 11 12 12 12 12 12 12 14 14 14 14 14 14 14 14 14 15 15 14 13 14 15 13 12 12 11 11 11 11 11 11 12 12 12 12 12 12 13 13 13 12 12
5 1 2 0 0 1 2 2 2 3 1 3 6 7 9 9 10 10 10 10 9 10 9 9 9 10 11 12 11 8 11 13 18 19 13 20 25 25 24 23 21 19 19 18 17 16 14 14 14 14 13 13 12 11 10 10 11 11 12 12 12 12 14 14 14 13 12 13 14 14 14 14 14 14 13 13 14 12 11 11 11 11 11 10 10 10 10 11 11 12 12 12 12 12 11 11 11
5 1 3 1 1 1 2 2 4 3 0 3 7 8 9 9 9 10 10 9 8 9 10 10 11 12 11 11 10 9 12 13 16 19 18 24 27 26 24 22 21 19 20 18 17 16 16 15 14 14 13 12 12 11 11 10 11 10 11 11 11 12 13 13 13 12 12 13 13 13 13 13 13 13 13 13 13 12 11 12 11 10 10 10 9 10 10 11 11 11 12 12 12 12 11 12 12
7 2 2 1 2 0 1 1 5 3 1 2 8 9 10 9 8 10 9 9 8 8 10 10 12 12 10 10 10 13 16 14 15 19 23 26 27 28 24 22 23 20 19 19 18 17 17 16 15 14 12 12 11 11 11 10 10 9 10 10 10 11 12 12 12 12 11 12 12 13 13 12 12 13 13 12 12 12 11 12 11 10 10 9 9 10 9 10 10 10 11 11 11 11 12 12 12
5 1 1 1 2 1 1 1 4 3 1 4 9 10 10 9 7 8 8 7 8 7 9 11 12 11 12 12 10 13 17 18 20 23 26 25 26 29 25 24 24 19 19 19 19 19 18 17 15 14 12 11 11 10 10 10 9 8 9 9 10 11 12 12 11 11 11 12 12 13 13 12 11 12 12 11 11 12 11 11 10 10 9 9 9 9 9 9 9 9 10 10 10 11 11 12 12
2 3 2 1 1 1 1 1 2 5 2 8 10 10 9 8 6 6 7 8 9 7 9 11 11 11 13 14 12 12 16 21 24 24 25 23 25 31 27 24 23 20 20 19 19 19 17 17 16 14 13 12 11 10 9 10 9 8 8 9 11 11 11 12 11 10 10 11 12 13 13 13 12 10 10 10 11 11 11 10 9 9 8 8 8 8 8 8 8 8 9 9 9 10 10 10 11
2 3 1 2 0 1 2 1 1 6 4 10 9 10 8 8 7 5 6 8 9 7 10 11 12 13 13 14 11 11 16 23 24 23 23 21 24 32 28 23 23 22 21 20 19 19 17 17 16 15 14 12 11 9 9 9 8 8 8 8 10 11 11 12 11 10 10 10 10 12 12 12 12 10 10 9 11 12 12 10 8 8 8 7 7 7 8 8 8 8 8 8 8 9 9 10 10
1 2 1 1 1 1 2 1 1 7 5 11 8 10 7 7 7 6 7 8 9 8 11 11 12 14 13 12 9 13 20 22 22 22 21 19 23 29 26 23 22 21 21 20 19 18 18 16 15 15 14 13 11 10 9 8 8 8 8 8 9 9 10 10 10 9 9 10 9 11 11 10 11 11 10 10 12 12 13 11 7 7 7 6 6 6 7 7 7 7 7 7 8 8 9 10 10
1 1 1 1 1 1 1 1 2 6 6 10 8 8 6 7 7 7 7 7 9 9 9 9 10 11 12 11 8 14 21 20 21 21 20 18 22 26 23 21 20 19 20 19 18 17 17 15 14 13 13 13 12 11 10 8 7 8 8 8 8 8 9 9 9 8 9 11 9 10 11 10 10 10 10 11 12 12 12 11 8 6 6 5 5 6 6 7 7 7 7 7 7 8 9 9 10
1 2 1 1 1 1 0 1 3 4 5 6 7 7 6 7 7 7 6 7 8 8 9 9 10 10 11 10 9 13 17 19 21 20 19 18 20 26 24 20 20 20 19 18 17 16 15 15 13 12 12 12 11 10 10 8 7 8 8 9 8 8 9 8 9 9 9 11 10 11 12 10 10 10 11 12 12 12 11 10 7 5 5 5 5 6 6 7 7 7 6 6 7 8 9 9 9
2 1 2 1 1 0 1 1 2 0 2 5 6 6 6 6 6 7 6 7 7 7 9 10 9 11 11 10 9 9 14 19 20 19 19 18 18 23 25 22 21 20 18 16 16 16 16 15 13 12 12 11 11 10 10 9 8 7 8 8 8 8 9 8 9 10 10 10 10 11 11 10 9 10 12 13 11 10 10 8 6 5 5 5 5 6 7 7 7 6 6 6 8 9 9 9 9
3 1 1 1 1 1 2 0 2 1 2 5 6 6 7 7 7 7 6 5 7 8 9 10 8 8 10 10 9 10 16 20 20 19 19 18 18 19 21 22 22 19 16 15 16 16 15 15 14 14 13 11 10 10 10 10 9 9 9 9 8 8 9 8 9 10 10 9 10 10 9 9 9 10 12 12 10 9 8 7 6 5 5 5 5 6 7 8 7 6 5 6 8 9 9 9 11
4 3 1 1 2 1 1 1 2 2 4 6 6 6 8 7 6 6 4 2 6 7 5 8 7 7 11 11 13 16 20 20 19 20 19 18 18 17 18 22 23 19 16 14 14 15 14 15 15 14 13 12 11 10 9 9 9 10 10 10 10 9 9 9 10 10 10 9 9 9 9 9 8 9 11 10 9 8 8 5 4 6 6 6 6 7 8 8 7 6 6 6 8 8 7 8 10
6 2 2 2 3 1 0 0 1 1 2 7 7 6 8 6 5 5 2 2 4 5 3 6 7 8 11 14 19 22 22 20 19 20 19 17 17 16 16 20 21 17 15 13 13 15 14 15 15 13 12 12 12 11 10 10 10 10 11 11 11 10 10 10 11 11 10 10 10 10 10 10 8 8 10 9 9 8 7 5 4 6 6 7 8 9 9 8 6 6 6 6 6 4 4 6 8
3 1 2 2 2 1 1 2 3 1 1 6 7 6 7 6 5 3 2 3 4 3 5 7 7 11 15 20 23 23 21 21 20 19 18 16 15 14 14 16 16 14 14 13 14 16 15 14 14 13 12 12 12 11 11 11 12 11 11 13 12 12 11 11 12 12 11 11 11 10 10 11 8 8 9 9 9 7 5 6 6 7 8 9 10 10 8 7 6 5 5 4 2 1 1 2 4
2 2 2 3 1 4 3 4 3 2 3 4 5 3 4 6 5 2 3 5 4 5 8 9 12 15 18 21 22 22 21 20 19 18 17 16 15 14 13 14 13 13 13 12 15 16 14 13 13 13 12 12 12 11 12 12 13 13 12 13 13 13 13 12 12 13 12 12 11 10 10 10 8 9 10 8 7 6 4 6 8 9 10 11 11 10 8 7 6 5 5 4 3 3 3 3 3
2 1 3 4 5 4 4 6 5 6 5 5 5 3 3 5 4 2 3 4 5 6 8 10 13 15 16 18 19 21 21 19 19 17 16 15 15 14 13 15 12 12 12 12 15 15 13 14 14 13 12 13 13 12 12 12 14 15 14 14 13 14 14 13 13 13 13 13 12 10 11 10 10 10 9 8 7 5 5 8 10 11 11 11 10 9 8 6 5 6 7 6 5 5 4 3 5
2 1 4 6 6 3 4 6 6 6 5 6 7 5 3 5 5 3 2 0 4 6 7 9 12 15 17 17 17 18 18 18 17 16 15 14 14 13 13 16 12 11 12 12 14 15 14 14 15 14 13 14 13 12 12 12 14 15 15 15 14 15 15 14 14 14 13 14 13 11 11 11 12 10 9 9 7 5 7 10 10 10 10 9 8 6 6 5 5 6 7 7 5 6 7 8 10
5 2 5 9 8 4 4 6 4 3 7 5 6 6 2 5 7 3 2 1 1 3 4 9 12 15 16 15 16 16 16 16 15 15 14 12 14 12 12 16 13 13 15 15 15 16 14 13 15 16 15 15 13 12 12 12 13 13 14 15 15 17 17 15 14 14 15 14 13 11 11 12 12 11 10 9 7 7 8 9 8 7 6 5 5 5 3 4 4 4 6 8 4 8 10 11 11
5 3 5 9 8 6 4 5 3 3 5 5 5 7 2 2 4 4 4 3 2 1 3 9 13 14 16 15 15 15 15 14 14 13 13 13 13 12 12 15 15 14 14 13 13 14 15 14 14 16 16 15 13 12 14 13 12 13 13 15 16 16 17 16 15 15 16 16 15 14 14 13 13 11 9 8 9 8 7 7 7 6 5 4 3 4 3 3 2 3 6 9 7 13 13 11 10
2 5 8 7 6 7 7 6 6 3 8 5 4 11 4 3 1 1 3 4 3 5 5 10 12 13 16 14 14 14 14 13 13 13 13 13 12 12 13 13 13 13 12 11 12 12 15 16 15 16 14 13 13 12 15 14 13 14 14 16 16 16 16 16 16 16 17 18 17 17 14 13 12 10 8 9 10 9 6 7 9 8 7 5 3 4 4 3 1 3 5 6 8 12 14 12 8
0 4 8 8 6 5 6 7 9 8 7 4 3 10 4 6 1 2 3 2 3 9 7 10 13 13 15 13 14 13 13 12 13 14 12 12 12 13 16 15 13 13 13 13 14 13 13 16 17 16 14 13 12 11 14 15 15 17 17 17 17 16 15 15 16 15 16 17 17 17 14 14 12 9 10 10 9 9 7 8 8 8 8 7 5 5 3 2 2 3 4 3 6 6 9 13 11
2 1 4 7 7 5 3 4 7 7 4 3 4 7 6 5 3 3 4 5 5 10 9 10 13 13 14 12 14 12 12 12 12 13 11 12 12 12 15 15 14 13 14 14 15 15 14 16 18 16 13 12 12 12 13 14 17 19 19 17 17 16 14 14 15 15 16 15 15 16 14 14 12 10 11 9 8 9 9 8 7 8 8 7 7 5 3 3 4 3 4 3 6 8 7 11 12
1 4 4 8 7 6 2 1 2 4 3 4 6 4 3 3 4 5 5 7 6 8 7 12 12 12 14 12 13 11 11 12 12 13 11 12 12 11 13 13 14 14 14 15 14 15 15 16 17 16 13 10 12 13 13 15 17 18 17 16 17 18 15 15 16 16 15 13 12 13 13 15 13 11 11 9 9 10 8 7 7 8 8 7 7 6 3 3 3 2 3 4 5 6 5 6 10
3 3 2 6 8 7 3 2 2 2 3 4 7 4 3 3 4 5 6 8 7 5 7 8 12 11 12 12 12 9 10 12 12 11 10 10 11 11 12 12 14 14 14 15 14 14 15 17 17 17 15 12 13 13 13 15 17 18 17 16 18 19 17 17 18 16 15 13 11 10 12 14 12 10 11 10 10 9 7 7 7 7 8 6 6 7 5 4 3 2 1 3 3 3 1 1 4
3 2 3 5 10 5 3 3 2 3 2 4 7 3 3 4 5 6 7 7 3 5 9 8 11 11 11 11 11 9 9 13 11 10 10 11 11 11 12 12 13 14 14 15 15 15 15 18 20 18 16 14 15 14 13 15 18 19 17 16 18 19 19 18 18 17 16 13 10 10 10 10 10 11 12 11 10 8 7 7 7 7 7 5 6 7 6 5 3 3 2 2 3 3 3 2 2
4 3 7 4 6 2 2 1 1 4 1 3 5 1 3 8 7 6 8 7 5 6 8 8 4 7 11 10 9 9 9 11 11 10 11 12 12 11 12 13 13 14 15 14 16 17 14 17 20 18 16 15 15 15 14 14 16 18 16 15 18 20 21 20 18 18 16 14 12 12 9 8 11 13 11 11 10 8 7 6 7 7 6 5 6 7 6 6 3 1 3 1 2 2 3 3 3
5 5 6 5 2 2 4 2 2 4 3 2 1 3 1 7 7 6 6 5 5 8 9 1 5 5 9 10 9 10 9 9 12 12 12 12 12 12 13 14 14 14 14 14 16 17 15 16 18 17 17 16 16 16 15 15 16 19 18 17 19 21 23 21 20 20 18 17 16 15 11 9 12 12 10 10 8 7 7 6 7 7 7 5 5 6 6 6 4 1 3 2 1 1 1 3 3
6 5 4 3 2 1 5 2 1 3 3 4 4 3 2 4 7 5 3 2 3 7 4 3 4 6 6 10 9 9 10 10 12 13 11 12 13 13 14 14 14 14 14 16 17 17 16 16 17 17 18 17 17 17 18 18 19 21 21 20 20 21 23 23 22 20 20 20 18 15 13 12 12 11 10 8 6 6 7 7 7 7 7 6 5 6 4 5 5 2 3 2 1 1 2 4 3
6 5 5 1 1 3 4 3 3 4 2 5 5 3 2 4 8 5 3 3 3 4 3 3 2 5 7 8 10 8 9 10 11 12 12 12 13 13 14 14 14 15 15 16 17 17 17 17 18 18 19 19 17 19 20 19 19 21 20 19 19 20 21 21 20 19 19 19 18 15 13 13 12 11 9 6 5 5 5 6 7 6 5 5 5 5 3 3 5 4 3 2 1 1 3 6 2
4 5 6 3 3 5 4 5 5 5 3 2 5 5 3 5 8 6 4 5 4 4 4 4 2 2 6 6 9 9 9 9 9 12 14 13 14 13 14 15 14 15 16 16 16 17 17 17 19 19 19 19 18 19 19 18 20 19 17 17 17 18 19 16 16 19 20 18 16 15 14 12 11 11 8 5 3 4 4 6 6 6 4 4 5 4 3 3 4 4 5 2 1 1 3 6 2
4 3 3 1 4 5 7 7 7 8 5 3 5 5 3 6 8 7 6 6 6 6 4 4 1 2 5 7 9 10 9 10 9 12 15 14 15 15 14 15 15 15 16 16 16 17 16 17 19 20 19 18 18 19 18 17 19 17 15 16 15 16 17 15 15 18 18 16 16 15 13 12 11 10 8 6 4 4 5 5 5 5 4 4 3 2 3 4 3 3 4 4 3 2 3 3 2
8 7 3 4 7 3 9 8 8 10 8 5 5 4 2 8 9 9 8 7 7 5 3 2 1 3 5 8 8 11 10 10 11 12 14 14 14 15 15 16 16 15 16 16 17 17 16 17 19 20 19 18 18 19 18 18 19 18 16 16 15 16 16 16 16 15 15 15 15 15 13 12 11 9 8 6 4 3 4 5 4 4 3 3 2 1 2 3 2 2 2 2 3 3 3 2 1
7 7 4 8 9 3 11 9 9 8 5 4 5 4 2 5 8 9 9 8 8 6 4 3 3 4 6 8 8 11 9 10 13 13 14 16 15 16 15 16 16 16 17 16 17 17 16 17 18 19 18 18 17 17 18 18 18 19 17 16 16 17 17 16 15 14 14 14 14 15 13 11 11 10 8 6 4 4 3 4 4 3 3 3 2 2 3 3 2 2 3 3 3 3 3 3 1
7 8 5 8 8 3 9 9 10 6 3 4 5 4 3 4 7 8 10 10 9 9 8 6 6 6 6 8 8 10 9 9 13 12 13 16 15 16 16 15 17 18 18 17 17 17 17 17 18 18 18 18 17 16 17 17 17 17 17 16 16 16 17 15 14 14 14 14 15 14 12 11 11 9 8 7 6 4 2 3 4 2 2 3 2 1 1 0 2 4 4 3 4 3 2 3 2
8 7 6 7 3 7 9 8 10 6 3 3 5 4 2 6 7 7 11 11 9 9 9 8 8 7 6 7 8 9 11 10 13 13 13 14 15 16 16 15 17 18 18 17 17 17 17 18 18 17 17 17 16 15 15 15 16 15 15 15 14 14 14 13 12 14 15 14 14 12 11 11 10 9 8 6 6 5 4 4 4 3 2 1 1 1 0 1 2 4 4 2 2 1 2 3 2
8 7 7 7 4 4 4 7 10 7 5 4 2 1 4 7 6 5 9 10 8 9 9 8 7 6 7 8 9 9 12 11 12 13 12 13 15 16 15 15 17 18 17 17 18 18 17 18 18 18 17 16 15 15 14 15 15 13 13 14 13 13 12 11 12 12 13 14 13 11 11 11 10 8 7 6 6 5 4 4 3 4 2 1 1 0 0 2 3 3 2 2 1 0 1 1 1
8 8 8 7 8 11 4 7 9 6 8 6 2 0 4 6 7 6 7 8 7 8 9 8 7 5 7 9 9 8 11 12 13 14 13 12 14 15 15 16 17 18 17 18 18 18 17 18 18 18 18 16 15 15 14 15 14 12 12 13 13 13 12 11 12 11 12 13 12 11 11 10 9 8 7 7 7 6 4 4 3 3 2 1 1 1 1 2 3 1 1 2 1 1 1 1 0
7 8 9 10 10 13 6 8 7 4 4 5 3 2 2 6 8 8 8 10 9 9 11 11 8 5 6 8 8 10 11 12 12 13 13 13 15 16 15 16 17 18 18 18 18 18 18 19 19 18 18 17 16 16 15 15 15 13 13 13 13 13 12 11 11 12 13 12 11 11 11 10 9 9 8 6 5 6 5 4 4 2 1 2 1 2 1 1 1 0 1 1 2 2 1 0 1
6 4 5 9 9 9 8 5 3 5 3 5 6 3 0 6 9 11 11 11 12 10 11 13 9 6 6 7 9 11 11 11 12 13 13 14 15 16 16 17 18 18 18 18 18 18 19 20 19 19 18 17 17 16 15 16 15 14 14 13 13 13 11 11 11 11 12 11 11 11 11 11 9 8 8 7 5 6 5 4 4 3 1 2 2 2 1 1 1 1 1 2 2 0 0 0 1
5 6 11 10 10 9 10 9 6 8 4 6 9 4 3 4 7 12 12 11 12 12 12 12 10 9 8 7 8 11 12 12 12 12 13 15 16 16 16 17 18 18 19 19 18 19 20 21 20 19 19 17 17 17 15 15 14 14 14 13 13 13 11 11 10 10 11 10 11 11 10 10 10 8 8 9 8 6 6 5 5 4 3 3 2 1 1 2 2 2 3 1 1 1 1 2 2
7 10 12 9 10 10 10 9 8 9 6 4 7 5 5 3 5 9 9 9 10 12 13 13 12 12 11 10 10 12 13 12 13 13 13 15 16 18 17 17 18 18 19 19 19 19 21 21 20 19 19 18 18 18 16 15 14 14 13 12 13 12 11 11 10 9 11 9 10 11 10 10 11 8 8 9 8 7 6 7 5 5 4 2 1 1 1 1 2 2 2 1 2 1 2 4 3
9 12 11 9 10 9 9 9 8 8 6 6 7 6 6 2 6 7 4 6 8 9 11 10 11 12 12 13 13 13 14 12 12 13 13 15 19 20 18 18 19 19 19 19 19 20 21 21 21 20 19 19 19 19 17 15 14 14 13 12 13 12 10 12 10 9 10 9 10 11 10 10 11 9 8 8 8 8 7 7 6 5 4 3 3 3 1 1 1 2 1 2 3 3 3 3 3
10 11 9 9 9 8 7 6 6 6 6 8 10 9 8 4 4 5 3 3 5 6 7 6 6 11 12 12 13 14 14 12 12 13 13 16 19 21 19 17 17 18 19 19 20 21 21 21 21 21 20 19 20 20 18 16 14 14 13 12 13 12 11 11 11 10 10 9 10 10 9 9 9 9 10 9 9 9 8 8 7 6 5 5 5 3 2 2 2 3 3 4 4 4 4 4 4
7 6 6 7 6 5 5 4 5 6 6 8 10 11 12 6 2 4 5 3 2 4 7 8 10 12 12 11 13 14 13 12 12 12 13 14 16 19 21 19 18 18 19 20 20 21 22 21 22 22 20 19 20 20 18 17 15 14 13 12 13 13 11 11 11 11 11 10 10 10 10 10 9 9 9 10 10 10 10 9 8 7 6 5 5 4 3 3 3 3 3 3 4 5 5 5 5
6 4 4 6 4 4 4 4 4 6 6 8 9 9 7 1 4 5 7 3 1 3 5 8 11 14 14 13 14 12 11 13 12 11 12 12 12 15 20 21 20 19 19 19 21 21 21 22 22 22 21 20 20 20 19 18 16 15 14 13 13 13 12 12 12 12 12 11 11 11 11 11 10 10 9 10 10 10 11 11 9 9 7 6 6 6 6 5 4 3 2 2 3 5 5 5 5
6 4 4 6 4 5 6 4 4 6 7 8 8 8 4 6 4 3 6 4 1 1 4 6 8 12 13 14 14 12 11 12 11 11 12 12 11 14 18 19 19 19 18 18 20 22 22 22 23 22 22 21 20 20 20 19 17 16 15 14 13 13 13 12 12 12 12 12 12 11 11 11 11 11 10 10 10 9 11 12 11 10 9 8 8 8 7 6 5 5 4 4 4 5 5 4 5
7 6 4 6 6 5 6 5 5 5 6 8 7 5 1 6 4 4 6 6 4 2 4 4 3 7 10 13 12 12 12 10 9 11 12 12 13 15 15 16 18 20 20 19 20 22 21 22 24 23 22 21 21 21 20 20 19 17 16 15 14 14 14 13 13 12 12 12 12 12 12 12 11 12 12 11 10 9 9 10 11 10 10 9 9 8 8 8 7 7 6 6 6 5 5 5 5
3 6 5 5 6 6 6 9 10 9 8 6 3 0 3 6 7 6 3 3 5 6 5 6 2 3 6 10 11 10 11 9 9 11 10 11 14 16 16 17 18 20 22 21 20 21 22 22 24 24 23 22 21 21 21 20 20 18 17 17 16 15 14 14 14 13 12 12 12 12 12 12 12 11 12 11 11 11 10 10 11 10 11 10 10 9 9 9 8 8 8 7 7 6 6 7 7
2 4 3 3 7 8 8 9 10 9 7 5 3 2 6 7 6 4 3 4 5 7 7 3 4 2 5 6 9 12 11 9 8 9 7 9 13 16 18 19 19 19 22 22 20 22 23 24 25 24 23 22 21 21 21 20 20 19 19 18 17 17 16 14 14 14 13 12 12 12 12 12 12 10 11 11 12 12 11 11 11 10 12 12 11 10 10 10 9 9 9 9 8 8 8 8 8
4 3 4 4 4 6 6 6 6 7 7 5 5 3 3 4 2 2 4 6 6 6 4 1 3 2 5 6 8 11 11 9 7 6 7 9 11 16 19 20 20 20 22 23 23 23 23 23 25 25 24 23 22 22 21 20 21 19 19 19 18 17 17 16 15 14 14 13 13 12 11 12 12 12 11 11 11 12 13 13 12 11 12 13 12 11 11 11 11 10 10 10 10 9 9 9 8
3 5 7 5 4 3 4 4 5 6 7 5 6 5 3 3 0 2 3 6 6 7 5 2 2 4 3 4 5 5 6 7 5 5 7 7 8 14 18 20 22 22 21 22 24 23 22 23 24 24 24 24 23 22 21 20 20 19 19 19 19 18 17 16 16 15 15 14 14 14 13 13 13 13 13 12 11 11 13 14 14 13 12 12 12 12 12 12 11 12 11 10 11 11 11 11 9
3 4 4 3 3 4 4 5 5 5 7 5 6 5 3 4 3 4 4 5 5 6 7 4 2 3 4 3 4 4 4 5 5 7 9 6 9 16 20 21 22 22 21 22 24 23 21 21 23 24 23 23 23 22 22 21 21 19 19 19 20 19 18 17 17 16 16 15 15 15 14 14 14 13 14 14 13 13 13 14 14 14 13 13 13 12 12 12 12 12 11 11 11 12 11 11 10
4 4 4 3 3 4 3 6 5 4 6 6 6 4 3 3 3 4 3 2 3 5 6 5 2 2 4 3 3 5 6 6 7 9 8 4 6 14 19 23 21 19 21 21 22 24 23 21 22 23 23 23 24 23 22 22 21 20 20 19 20 20 19 18 17 17 16 16 15 16 15 15 15 15 14 14 15 15 14 13 13 14 14 14 15 14 13 12 13 13 13 12 12 11 10 10 10
5 4 5 4 4 5 4 5 4 4 5 6 8 5 3 3 3 5 4 3 4 7 8 6 4 3 4 4 2 4 5 5 4 4 4 1 4 10 13 18 20 18 18 20 21 22 24 24 24 23 23 23 23 23 24 23 22 21 21 20 20 20 20 19 18 18 17 16 16 16 15 15 15 15 15 14 14 14 15 15 15 14 14 14 14 15 14 13 13 13 13 12 12 12 11 11 12
Wind_Direction
162 162 188 316 221 295 330 49 317 92 205 231 103 95 92 92 106 110 107 114 103 93 86 80 86 87 88 82 80 74 65 63 55 89 108 128 143 147 141 134 135 135 132 135 136 130 130 135 134 130 127 126 124 123 123 124 123 124 123 117 113 113 113 114 114 113 112 111 114 116 114 114 111 111 110 109 110 111 110 107 104 101 99 98 97 98 96 91 87 85 86 87 86 85 82 79 78
186 197 227 253 208 301 356 144 316 234 228 139 90 94 104 108 104 95 97 99 93 96 94 86 75 82 91 84 82 78 72 72 81 88 109 132 138 135 135 136 137 134 132 135 134 132 135 138 135 131 130 129 127 125 125 125 124 126 123 116 114 115 116 116 113 112 114 118 121 119 121 118 112 113 115 116 115 112 111 109 105 102 101 100 100 98 95 92 89 87 88 88 87 85 82 79 78
189 216 265 262 195 158 182 218 237 266 231 111 93 97 103 102 95 92 93 91 93 96 91 83 63 69 90 83 78 81 86 88 97 102 122 135 134 133 136 137 135 133 132 133 134 134 137 135 132 131 133 133 132 129 127 127 126 127 125 120 117 117 118 116 114 117 120 123 123 124 126 121 118 118 118 119 118 115 114 110 105 103 103 103 101 99 97 96 92 90 89 89 87 85 82 79 77
207 360 341 301 228 205 262 239 252 295 252 120 101 102 100 97 101 102 100 99 101 97 92 92 70 49 70 89 90 87 97 101 106 109 124 134 133 134 136 134 133 131 131 133 134 136 138 136 134 135 137 138 137 133 131 132 128 126 127 122 117 121 121 118 120 122 121 121 122 127 126 120 120 119 118 116 114 114 113 109 107 105 103 103 101 99 98 97 94 91 89 88 86 84 80 78 75
225 327 59 80 188 319 300 279 271 285 244 122 111 108 104 103 107 108 102 99 95 98 100 99 88 66 61 80 95 98 107 110 112 114 125 132 131 132 134 133 131 130 131 132 133 138 140 137 135 135 136 138 139 136 136 133 126 124 126 122 119 124 124 122 126 124 119 117 119 123 123 119 119 119 121 117 115 118 117 113 109 107 104 103 100 98 98 97 94 90 87 85 84 82 78 75 72
212 100 63 62 107 316 291 306 299 286 189 108 115 114 112 112 112 112 101 90 83 92 97 93 96 93 74 68 82 99 113 115 113 122 130 129 130 131 131 128 128 128 130 132 131 137 141 137 133 132 133 133 133 134 137 132 125 122 124 126 124 124 122 120 123 123 118 116 115 119 121 122 123 124 126 123 122 123 123 118 111 109 107 104 102 99 98 96 94 91 88 85 82 79 74 69 67
188 151 44 4 80 299 293 322 293 294 296 99 116 120 117 118 121 116 104 100 94 91 95 96 101 100 90 84 85 91 103 111 114 124 126 127 129 129 130 124 124 128 130 133 132 137 139 134 131 131 131 131 130 132 135 127 122 123 125 129 129 127 122 116 120 123 120 121 121 120 122 126 129 128 127 126 125 125 125 119 114 113 109 106 102 100 99 97 96 93 91 87 82 76 71 66 64
159 76 318 287 42 265 254 269 275 288 236 125 115 118 119 123 122 117 114 107 98 94 96 97 98 94 90 92 91 94 101 108 114 120 123 129 126 126 133 127 124 129 130 131 133 138 135 132 133 132 131 131 133 134 133 126 122 123 120 125 132 133 127 120 120 125 125 129 130 124 125 130 131 129 128 128 127 127 125 119 118 116 111 109 104 103 102 100 98 95 93 88 83 74 69 64 59
79 23 328 12 51 284 289 297 307 289 191 119 108 112 118 120 116 125 128 110 103 97 92 94 97 98 98 96 95 100 105 111 116 121 124 130 124 122 130 128 126 130 130 131 133 134 133 134 135 133 133 131 134 136 134 128 125 123 117 121 133 139 134 127 123 130 134 133 134 128 125 131 133 131 130 129 129 130 125 121 123 119 115 114 110 109 106 104 101 95 93 89 82 71 64 59 52
32 38 326 2 98 279 283 275 324 273 167 116 113 118 119 118 123 132 119 106 102 92 96 103 104 106 109 104 103 108 113 118 122 125 127 129 121 119 125 128 128 132 132 133 132 133 136 138 137 135 135 134 133 134 133 129 128 128 127 124 130 139 137 132 128 135 141 134 133 130 127 131 135 137 136 134 134 135 127 124 124 122 124 122 117 113 107 104 98 92 93 87 77 65 57 51 44
33 31 203 350 287 209 245 256 240 257 153 120 121 117 118 120 123 119 110 104 101 101 109 111 107 107 107 101 102 116 122 126 126 126 126 126 118 117 123 125 127 133 133 133 133 136 139 139 138 136 136 136 132 129 131 135 140 137 137 133 129 140 139 133 134 139 145 140 134 136 136 134 139 143 144 143 143 141 132 130 130 132 134 128 121 114 106 99 96 94 91 83 71 60 52 44 40
59 327 237 60 273 252 237 323 238 230 145 124 122 118 125 117 114 117 120 117 113 113 107 107 113 112 107 104 112 127 130 129 125 124 125 126 120 119 126 125 126 131 130 132 134 137 139 139 138 136 136 136 134 134 134 139 149 143 138 139 137 146 144 136 144 146 147 147 143 145 144 142 146 147 148 148 147 142 135 136 136 141 143 132 126 116 105 96 94 94 87 76 66 57 51 46 43
165 208 218 124 193 259 94 300 244 203 140 124 122 122 119 111 116 117 116 116 113 114 110 120 132 119 109 113 126 136 133 127 125 128 127 127 123 124 128 127 127 129 131 136 137 140 141 137 137 138 139 137 137 138 139 144 151 146 140 143 147 151 149 144 152 150 146 150 151 154 151 147 152 151 150 149 148 144 141 140 137 149 150 136 130 115 103 96 95 94 84 70 64 61 59 55 51
200 181 193 138 137 320 55 304 291 251 132 128 121 117 115 113 115 109 112 118 112 118 115 119 126 112 110 123 135 141 131 130 132 132 128 127 127 128 130 130 128 130 134 138 138 141 139 135 138 141 139 134 139 143 147 152 154 154 149 144 146 149 151 154 158 150 144 151 156 159 152 145 154 154 150 149 149 149 147 142 139 154 149 132 126 112 102 98 100 97 82 72 73 73 70 67 66
179 131 169 74 71 31 39 320 278 272 172 134 124 121 110 99 104 105 108 110 106 115 117 121 129 122 134 144 143 141 134 138 138 132 129 129 130 129 132 131 128 131 135 140 143 144 142 138 141 143 139 140 152 158 156 154 156 161 155 147 149 151 153 157 159 150 146 155 159 155 147 141 149 152 149 150 153 152 146 142 143 150 142 131 124 110 105 103 104 99 86 87 90 83 76 77 79
202 175 131 81 72 44 29 338 265 197 167 137 128 128 109 98 108 97 91 116 105 114 134 138 140 141 152 148 134 137 138 142 139 132 131 129 129 129 132 127 124 130 132 136 146 150 153 149 145 142 142 150 158 163 163 157 161 165 157 155 160 156 157 161 157 157 157 155 150 144 143 138 143 152 150 153 158 155 148 143 143 145 143 132 121 111 108 107 104 98 93 103 104 88 78 80 81
206 176 40 76 74 50 306 264 239 290 156 142 135 130 114 103 101 92 143 191 117 127 138 129 141 143 141 132 130 136 140 142 139 134 131 132 133 135 139 126 121 133 132 128 139 147 152 150 145 143 145 152 156 160 168 171 171 169 162 162 164 157 159 165 161 165 165 153 146 145 144 139 144 156 153 158 165 161 149 140 144 145 139 125 116 112 108 105 102 101 103 112 113 93 80 83 78
191 97 36 89 84 181 235 244 202 314 279 155 136 128 123 117 109 117 175 112 97 135 114 112 124 119 116 122 131 138 142 143 142 139 137 142 141 144 150 129 122 136 136 129 137 145 142 143 145 144 148 154 159 159 169 181 177 173 169 168 167 160 160 169 167 165 165 157 150 149 146 139 150 167 165 170 168 160 140 133 148 140 127 119 114 111 105 101 97 96 92 80 79 61 334 57 61
117 91 96 91 185 194 213 252 217 214 226 156 114 94 109 116 117 125 135 122 145 139 110 110 108 109 117 127 136 140 145 146 146 145 144 151 148 152 151 128 130 142 140 136 143 152 144 143 145 144 151 157 161 158 170 182 175 173 170 169 169 163 162 169 168 163 167 162 150 155 151 145 171 186 178 179 174 171 149 137 144 131 122 116 112 109 98 91 82 60 39 21 13 343 318 336 19
91 107 93 109 181 192 218 241 242 234 220 163 126 96 114 116 102 86 114 150 163 132 117 119 117 123 129 134 141 144 150 150 149 150 151 158 149 156 151 131 144 151 146 147 149 158 153 149 149 153 164 164 165 164 176 182 173 175 168 166 169 164 164 168 168 163 170 166 158 163 157 163 191 188 180 182 174 178 158 143 139 126 119 114 113 107 89 75 54 28 18 16 28 18 4 44 84
120 146 93 130 169 184 205 223 246 263 261 192 148 122 142 106 82 56 27 182 143 121 128 133 131 136 136 140 147 150 154 150 153 156 154 161 150 155 150 132 150 159 153 155 152 158 156 152 151 159 166 164 169 168 177 179 171 175 171 168 167 163 165 170 170 164 173 176 167 168 168 184 195 183 177 169 160 170 153 139 131 118 109 109 110 93 56 27 8 0 355 348 18 43 39 69 94
124 116 108 135 161 170 178 216 227 331 311 239 150 129 165 92 95 86 55 249 149 95 131 145 138 139 142 148 151 154 155 152 158 156 153 162 150 148 142 133 153 165 161 162 156 156 154 150 150 155 161 163 165 162 168 170 169 176 175 171 167 166 167 171 176 171 175 177 173 178 183 190 190 179 169 160 165 173 153 136 128 119 111 109 97 75 26 15 10 353 2 355 28 98 75 67 79
122 129 125 137 160 156 162 213 139 62 295 250 138 106 37 47 115 108 124 196 251 289 200 149 141 144 146 152 156 157 156 157 158 154 158 161 146 145 144 141 153 161 162 159 150 151 149 149 151 151 159 168 165 160 161 163 171 176 174 170 166 167 168 172 177 177 179 178 181 185 185 188 184 174 171 173 176 175 170 160 153 150 148 141 101 86 63 66 46 2 20 16 55 109 103 80 71
136 151 151 138 149 154 168 171 119 188 242 235 122 91 63 258 132 50 167 202 252 267 239 145 142 149 149 157 160 156 157 159 156 158 161 153 148 148 140 140 151 156 157 149 143 151 151 151 155 152 155 168 166 161 162 163 168 169 169 165 162 163 168 174 173 177 184 181 182 182 179 182 177 171 183 186 177 181 190 171 164 162 153 146 121 101 75 57 22 355 3 10 61 100 112 106 102
134 146 157 143 145 159 171 153 140 188 218 228 120 105 169 216 139 286 219 246 266 277 265 150 149 154 153 162 158 156 158 157 159 159 153 149 157 148 138 146 157 156 155 153 148 154 156 149 152 155 156 164 161 157 162 165 164 164 165 160 159 162 167 173 171 175 182 181 181 177 174 179 182 183 186 182 178 182 174 164 169 162 142 130 125 116 94 38 13 20 7 11 56 76 112 117 124
85 251 142 125 140 145 147 151 152 167 167 166 119 117 194 192 152 228 241 268 266 278 263 156 154 159 157 165 156 155 159 161 163 153 152 156 154 147 144 151 156 154 153 153 147 149 153 143 143 152 158 161 157 156 161 162 162 162 163 161 158 160 163 167 169 173 177 180 180 174 175 181 187 189 183 179 175 170 170 172 160 145 133 125 128 119 102 60 34 22 20 24 40 36 70 104 117
208 268 123 129 134 117 112 242 150 128 111 118 111 120 237 222 198 213 213 246 257 279 251 159 159 166 160 163 153 157 165 164 160 151 158 153 142 150 151 150 152 151 151 146 141 146 147 139 140 148 154 158 152 154 158 159 163 163 163 162 157 159 164 164 168 174 173 173 176 178 185 187 189 188 177 170 166 166 178 176 144 136 132 124 133 129 126 92 54 15 31 22 37 48 62 93 121
243 295 111 146 109 83 84 17 4 101 117 125 120 132 275 289 252 228 190 222 240 299 290 178 165 166 163 160 151 165 172 156 155 156 157 146 145 157 153 150 148 145 147 142 139 145 144 139 141 144 148 155 148 147 151 154 161 164 163 161 158 163 166 165 168 173 171 169 177 186 186 191 196 185 168 163 166 171 174 161 144 137 127 121 136 132 135 124 114 169 102 20 35 62 47 63 139
267 283 243 149 99 79 86 59 3 60 79 152 139 147 237 228 237 234 188 206 191 34 310 232 168 166 164 158 154 169 169 149 155 162 154 150 155 159 152 149 147 144 142 138 141 145 143 140 140 142 145 147 148 148 148 148 154 160 160 158 160 164 167 169 169 173 178 173 175 182 179 191 194 173 165 166 165 171 169 154 143 133 128 135 134 125 140 150 142 170 159 351 1 38 49 77 138
278 244 240 181 121 156 121 105 113 75 335 190 161 198 213 197 214 230 189 190 131 104 259 243 157 184 164 154 164 164 162 153 159 165 159 155 157 161 153 148 148 140 134 139 145 143 141 140 138 142 145 144 149 150 147 144 149 154 155 160 164 167 170 171 168 170 173 169 171 178 178 187 176 163 165 167 161 167 167 152 144 136 136 141 134 141 169 177 167 170 174 293 349 51 44 28 28
250 250 242 229 212 168 142 194 124 114 244 227 190 289 190 174 195 224 195 176 147 169 224 257 30 265 175 158 172 161 162 167 167 166 160 154 156 160 152 148 146 136 137 146 143 138 140 140 138 143 146 147 149 149 149 149 153 156 156 163 170 171 173 172 167 164 161 167 176 179 180 177 164 158 163 165 164 167 158 149 147 142 144 143 152 175 186 177 165 129 169 178 341 182 313 328 27
222 245 246 241 306 149 151 186 108 128 198 99 71 302 305 183 184 202 185 121 148 177 207 83 52 289 222 172 172 165 166 173 169 159 158 158 155 157 150 146 143 140 145 143 139 140 140 140 141 144 148 149 149 149 152 152 155 158 158 163 167 169 173 174 170 165 163 171 176 176 177 168 158 160 164 162 165 170 160 152 148 145 150 143 159 181 171 165 173 159 163 182 268 201 347 3 66
211 223 246 219 72 208 170 150 141 119 120 114 132 207 272 213 183 167 144 132 149 161 150 110 109 286 259 191 170 169 169 174 166 153 163 163 153 155 149 144 144 145 143 140 142 142 139 143 145 145 148 150 151 150 151 153 153 153 156 161 165 169 172 173 173 170 169 171 170 171 170 161 158 161 165 167 168 170 158 144 143 148 154 150 163 179 172 169 180 180 167 135 71 142 345 353 16
218 219 242 212 204 222 171 152 163 137 120 160 186 223 245 198 184 164 164 165 163 187 161 118 121 263 281 229 177 171 173 173 162 159 167 161 153 155 148 143 144 141 140 143 144 141 141 146 145 145 146 147 151 149 147 151 152 153 156 160 167 173 170 170 175 171 168 167 166 166 163 158 158 158 164 173 155 144 137 133 140 147 150 153 164 187 201 178 174 179 171 160 138 197 335 352 355
326 294 278 258 237 213 156 146 160 159 168 194 203 237 209 167 178 171 173 178 178 201 171 115 144 223 282 260 191 174 177 169 164 170 163 153 154 155 149 144 143 143 144 145 142 141 144 140 139 144 145 147 150 149 148 149 152 156 162 162 164 167 162 166 175 170 163 163 162 159 157 157 158 157 162 166 143 129 133 127 131 141 140 146 160 194 194 170 180 183 166 181 189 207 308 348 6
349 321 302 290 277 170 132 138 160 172 180 192 204 244 202 162 175 176 174 184 185 183 142 121 192 216 253 258 204 178 180 166 168 176 159 152 159 155 151 147 146 147 143 143 141 142 144 138 139 146 147 150 150 151 154 153 156 161 168 170 168 170 170 172 176 169 158 155 156 155 155 157 159 158 161 169 158 134 134 130 130 136 134 139 151 153 136 140 172 193 176 192 180 195 243 210 197
344 307 280 271 285 105 126 142 154 173 184 171 186 235 230 165 170 177 176 184 192 181 170 184 211 220 238 255 215 179 182 169 166 177 164 158 162 156 155 153 150 147 142 144 145 145 148 144 145 148 148 150 152 155 159 159 162 164 170 170 166 173 178 175 171 161 149 148 153 155 154 159 160 157 163 171 161 138 125 126 133 138 133 134 124 87 92 116 151 204 222 224 213 214 222 208 228
303 289 275 266 279 139 147 147 138 164 230 165 175 221 213 151 155 169 176 182 194 192 189 196 207 226 241 265 244 188 182 173 162 177 174 162 160 157 159 160 153 147 146 151 151 149 152 150 150 150 150 154 158 161 162 162 163 164 167 165 161 164 167 169 166 152 145 148 155 154 153 161 160 157 165 164 160 168 161 133 137 150 132 128 139 80 53 150 177 205 221 236 227 218 234 233 236
291 287 279 269 251 142 146 147 143 161 252 184 178 220 169 136 145 165 181 184 194 197 194 196 201 221 229 255 261 205 183 179 167 176 176 163 162 163 163 165 158 151 153 157 154 153 155 153 153 152 153 159 162 162 162 160 162 164 162 161 161 157 158 164 157 147 146 149 153 155 158 164 160 160 167 160 163 180 169 146 147 158 139 118 150 113 247 228 226 222 221 243 240 218 262 237 221
267 257 266 276 248 204 167 167 167 171 218 208 179 224 105 123 141 173 194 187 192 198 192 196 198 213 226 238 255 215 184 181 175 174 173 166 167 167 167 168 162 157 160 160 157 157 157 155 156 156 157 161 161 161 161 158 159 161 158 158 159 153 153 153 145 145 150 150 155 159 162 163 159 159 165 167 176 173 152 163 164 147 145 176 169 139 251 235 237 242 228 204 210 106 220 210 249
257 247 259 275 266 279 290 152 168 194 207 194 178 193 128 149 166 182 200 191 191 193 186 197 205 214 236 241 260 244 201 185 178 176 174 167 167 168 170 174 167 163 166 164 162 163 159 158 159 159 159 159 160 161 162 159 155 154 153 155 153 148 149 151 149 150 152 154 159 162 162 162 162 162 166 178 180 164 158 186 175 131 143 210 234 267 258 256 240 264 311 195 147 51 117 125 317
273 254 256 269 266 279 274 160 165 237 217 171 186 261 157 174 187 185 185 186 190 191 188 198 208 220 231 229 242 246 218 190 180 180 174 167 170 172 175 179 173 169 171 167 167 166 159 160 161 160 160 159 160 162 163 159 156 153 152 152 150 148 150 159 160 155 158 165 163 161 161 164 171 166 167 178 163 153 172 193 186 168 189 187 229 285 244 250 247 216 33 106 82 52 100 153 291
275 282 319 314 296 289 275 241 241 291 297 167 195 269 173 179 200 196 179 181 187 186 194 199 203 220 226 223 227 226 214 193 183 183 176 169 173 174 176 183 179 174 173 170 170 167 159 160 162 161 161 159 160 164 162 160 161 159 157 155 154 154 157 165 169 162 162 163 156 158 161 166 177 169 164 172 162 160 172 184 193 204 238 212 214 257 242 222 236 194 127 86 82 52 17 300 308
279 344 5 337 309 310 305 300 280 274 284 180 192 231 261 213 196 187 174 178 190 189 197 199 200 216 221 232 239 226 215 198 184 187 180 169 173 178 178 185 185 177 174 173 172 166 158 160 163 162 162 161 162 164 164 165 166 165 167 164 160 164 165 166 171 165 156 154 154 159 160 165 173 175 174 176 182 187 179 186 198 199 240 268 226 227 293 248 229 186 166 153 224 219 313 289 291
283 334 354 331 304 300 294 292 274 271 282 228 214 225 262 275 141 156 167 180 194 197 203 202 199 209 215 224 234 227 222 206 186 191 187 171 172 177 180 187 188 181 176 175 173 166 159 161 164 164 164 163 164 165 166 169 170 170 174 170 167 172 168 164 169 161 155 160 161 161 167 172 172 182 192 181 183 195 189 192 197 197 224 256 238 272 326 257 233 172 161 222 267 242 239 269 298
296 319 324 305 293 283 276 277 277 291 292 265 262 252 263 283 128 138 168 196 209 208 207 207 204 209 214 219 221 220 226 217 192 192 190 178 174 176 184 190 188 184 178 175 173 166 161 164 166 167 167 165 166 167 169 171 172 175 179 174 172 175 168 166 171 162 158 161 159 163 173 178 174 182 197 188 185 192 192 198 199 199 214 213 222 246 234 194 254 283 274 233 242 251 245 272 294
301 302 291 276 271 260 254 263 266 276 273 262 264 252 247 251 148 146 152 189 225 213 197 195 205 219 218 216 217 215 223 221 200 193 189 183 179 176 184 192 190 186 180 175 174 167 164 167 168 170 170 168 169 169 171 174 174 177 184 178 173 175 170 172 174 166 165 166 167 173 177 182 183 186 195 193 190 196 197 200 203 200 206 208 211 225 222 191 196 252 255 211 217 248 255 268 281
271 278 279 280 278 259 238 244 249 246 257 265 259 249 245 249 102 128 132 127 230 206 198 193 196 216 217 215 220 215 220 225 211 197 187 185 183 174 179 190 194 189 181 177 175 168 166 169 170 171 173 173 172 172 174 176 177 180 184 181 177 179 176 178 181 176 177 180 181 185 185 191 198 197 198 193 194 204 204 202 205 203 203 205 198 193 214 217 195 224 238 199 223 248 234 245 275
251 259 283 282 282 285 257 244 258 259 269 276 266 255 245 171 85 116 124 109 254 207 222 215 201 209 208 208 218 215 220 229 220 204 190 187 185 180 181 185 188 187 180 178 177 171 169 170 171 172 175 177 175 176 177 177 180 182 183 184 183 185 185 184 186 184 185 188 190 193 192 195 204 208 206 200 201 206 202 201 205 208 208 204 204 206 216 223 210 216 226 194 244 255 230 238 267
296 307 318 299 292 285 275 255 253 265 273 287 283 253 189 103 99 139 127 133 186 232 256 242 209 211 207 204 212 213 218 231 229 210 195 190 185 188 187 179 181 182 176 182 182 173 170 170 173 174 176 179 178 179 181 180 183 184 184 188 186 187 192 191 189 188 189 193 196 199 198 196 202 210 211 209 210 208 203 200 199 206 211 203 207 216 220 223 217 222 232 223 243 259 247 258 276
315 355 342 305 303 292 302 294 272 290 309 329 330 278 148 91 139 167 136 143 127 61 314 306 209 207 210 206 207 214 218 228 240 221 201 192 185 187 186 178 184 178 172 188 188 172 171 171 173 177 176 179 180 181 184 183 185 187 187 190 190 190 193 193 194 195 195 197 200 204 205 204 204 208 211 213 214 212 209 203 198 203 211 207 207 212 217 224 226 228 233 233 243 256 259 264 269
335 352 306 287 311 310 309 295 292 314 315 312 333 355 79 97 148 154 128 121 109 88 27 352 306 181 193 204 200 211 222 218 233 235 212 196 186 182 184 186 192 182 173 187 186 171 173 173 172 179 179 179 182 183 186 186 187 188 189 191 193 194 195 195 198 200 202 203 205 208 210 213 215 210 209 211 213 213 210 205 202 203 210 214 215 213 214 221 226 229 229 231 239 242 246 257 262
335 308 301 326 325 315 304 296 306 320 300 271 248 161 123 130 141 123 84 57 68 82 75 9 299 180 159 194 197 205 217 215 226 240 229 214 194 182 187 190 193 190 183 185 184 177 175 172 173 179 181 181 183 184 187 188 188 189 191 192 195 195 196 199 200 201 205 207 210 213 211 214 220 218 214 211 209 211 211 209 207 208 211 215 218 218 217 219 223 227 228 229 233 239 244 254 262
292 311 360 358 289 286 296 297 310 303 278 265 275 283 127 142 170 107 79 54 44 52 87 122 301 265 171 180 199 204 209 213 231 253 240 228 205 186 189 192 193 199 193 180 177 178 174 171 176 179 182 184 185 185 188 189 190 192 193 194 197 198 199 202 203 203 205 208 211 215 215 216 218 219 221 219 212 209 210 213 214 217 219 217 217 220 220 221 224 225 233 238 236 239 245 249 258
280 347 345 333 286 298 322 298 295 292 284 281 290 309 58 82 57 131 74 40 33 20 23 57 358 305 238 183 200 215 214 209 214 260 261 256 231 202 190 191 195 201 198 179 171 178 177 173 178 182 184 186 186 187 189 191 193 194 195 196 198 200 202 204 206 206 206 209 210 211 215 219 218 219 222 224 222 216 211 212 216 220 224 221 219 222 223 224 225 226 233 240 240 239 240 245 252
316 329 314 328 323 333 337 297 289 288 288 294 299 310 47 58 40 81 61 30 28 14 8 23 29 283 271 234 207 213 226 209 186 223 245 252 246 225 199 194 198 199 199 188 177 180 182 179 181 184 185 187 189 189 189 192 195 197 198 198 198 201 204 205 208 209 210 210 211 212 214 218 220 220 221 221 222 223 218 212 215 219 222 224 222 222 226 227 225 228 233 238 246 243 235 240 247
317 314 319 342 332 340 326 300 319 320 296 294 289 298 74 71 19 50 49 23 12 7 5 3 1 290 289 287 236 213 209 209 195 207 223 227 260 244 212 198 198 199 202 196 183 182 185 184 186 187 187 189 190 190 191 192 195 198 199 198 199 201 204 207 209 211 213 213 214 216 217 219 221 221 222 221 219 222 225 221 219 221 222 225 225 222 225 230 227 229 234 240 252 255 243 242 249
323 325 349 356 350 351 316 293 343 347 317 312 293 288 83 69 17 25 2 343 12 12 4 347 346 356 338 334 294 244 216 208 194 183 196 177 337 298 257 212 192 189 197 192 185 190 190 184 185 188 189 191 192 192 191 190 194 198 200 200 200 200 203 207 211 212 215 217 216 218 220 221 224 223 222 223 220 219 225 227 227 228 228 230 232 228 225 231 233 233 234 237 247 252 246 243 248